User: anonymous   Login
Location: Bauerbach
(50.4985°N, 10.3912°E)
Time: 00:09:11
(UTC+00:00)
Language:

Cosmos 1805 Rocket - Orbit

View from above orbital plane
View from above orbital plane
View from above satellite
View from above satellite

Ground track
Ground track

The orbit is defined by the following mean orbital elements,

1 17192U          26074.60395161 +.00000000 +00000-0 +43309-4 0 00006
2 17192  82.5064 136.5885 0016353  11.0549 141.7326 14.85919556    08
Epoch (UTC): 15 March 2026 14:29:41
Eccentricity: 0.0016353
inclination: 82.5064°
perigee height: 599 km
apogee height: 622 km
right ascension of ascending node: 136.5885°
argument of perigee: 11.0549°
revolutions per day: 14.85919556
mean anomaly at epoch: 141.7326°

The dashed part of the orbit path shows where the satellite is in the earth's shadow,  

DLR